Date,TemperatureHighF,TemperatureAvgF,TemperatureLowF,DewpointHighF,DewpointAvgF,DewpointLowF,HumidityHigh,HumidityAvg,HumidityLow,PressureMaxIn,PressureMinIn,WindSpeedMaxMPH,WindSpeedAvgMPH,GustSpeedMaxMPH,PrecipitationSumIn
2013-1-1,76.5,72.3,0.0,64.9,54.0,48.2,81,52,38,30.06,29.97,34,8,34,0.00
2013-1-2,77.7,74.4,0.0,75.9,72.1,64.9,98,92,76,30.00,29.91,22,6,22,0.00
2013-1-3,81.0,73.2,67.8,78.4,72.2,67.2,98,97,87,30.09,29.94,33,8,34,0.16
2013-1-4,69.3,66.4,64.0,68.7,65.5,62.1,98,97,90,30.21,30.09,28,11,28,0.08
2013-1-5,72.7,66.0,59.2,66.5,61.4,54.7,98,85,59,30.24,30.12,27,10,27,0.00
2013-1-6,77.5,72.0,69.3,76.9,70.6,65.6,98,95,84,30.12,30.00,22,8,22,0.00
2013-1-7,73.0,68.5,61.9,72.4,64.2,52.9,98,87,63,30.15,30.03,28,14,31,0.04
2013-1-8,82.2,74.3,69.4,72.2,68.5,56.6,98,84,43,30.15,30.06,22,9,25,0.00
2013-1-9,83.8,79.1,0.0,78.0,69.1,56.3,98,74,40,30.21,30.09,27,10,27,0.00
2013-1-10,82.0,78.2,74.5,77.1,66.8,51.4,98,72,35,30.21,30.12,28,12,28,0.00
2013-1-11,81.5,75.9,73.2,73.8,65.1,50.4,96,72,35,30.18,30.06,31,9,31,0.00
2013-1-12,81.3,76.0,73.9,75.0,70.2,55.5,96,84,43,30.12,30.00,26,8,26,0.00
2013-1-13,81.5,75.8,73.0,71.6,66.0,53.8,94,74,39,30.09,29.97,25,8,25,0.00
2013-1-14,80.4,74.9,71.8,72.8,60.6,46.5,94,65,33,30.12,30.03,25,6,25,0.00
2013-1-15,82.0,74.7,70.7,70.8,65.5,49.9,94,75,35,30.06,29.97,23,7,24,0.00
2013-1-16,80.4,75.1,72.0,72.9,67.8,54.1,98,80,41,30.03,29.94,22,7,22,0.00
2013-1-17,76.6,68.2,56.5,75.4,60.8,39.8,98,79,44,30.09,29.91,52,15,52,0.12
2013-1-18,65.1,56.8,46.9,50.9,42.7,33.3,72,59,49,30.24,30.09,42,15,46,0.00
2013-1-19,74.1,65.2,57.2,60.3,51.7,43.9,83,63,42,30.21,30.06,29,13,29,0.00
2013-1-20,77.4,68.0,64.9,63.9,60.3,51.2,95,77,42,30.12,29.97,26,7,26,0.00
2013-1-21,72.3,67.6,64.2,63.3,55.7,43.7,86,66,48,30.03,29.97,22,4,22,0.00
2013-1-22,68.4,62.1,57.9,47.9,33.2,13.6,56,35,12,30.21,30.00,23,5,23,0.00
2013-1-23,67.6,59.8,50.2,47.7,30.5,11.8,65,36,12,30.30,30.21,20,4,20,0.00
2013-1-24,70.7,62.6,54.7,57.7,50.3,40.7,89,65,44,30.27,30.18,13,1,16,0.00
2013-1-25,73.6,66.3,60.6,65.1,56.8,41.3,98,74,32,30.24,30.12,17,2,17,0.00
2013-1-26,73.8,68.2,63.0,64.3,57.6,47.8,91,71,42,30.21,30.12,17,2,20,0.00
2013-1-27,82.0,70.2,64.0,66.2,59.7,42.1,98,74,26,30.24,30.15,13,1,13,0.00
2013-1-28,83.1,73.3,67.1,71.2,60.8,48.3,96,69,31,30.24,30.12,18,2,18,0.00
2013-1-29,87.3,75.2,68.4,78.6,64.9,50.7,98,74,30,30.15,30.00,18,3,18,0.00
2013-1-30,84.4,76.0,70.2,71.6,65.8,55.8,91,73,40,30.00,29.83,38,8,38,0.00
2013-1-31,69.4,60.7,56.5,65.2,39.3,17.5,96,49,19,30.18,29.83,35,7,38,0.12
2013-2-1,67.8,59.0,0.0,37.5,28.6,8.3,48,33,10,30.30,30.15,22,6,22,0.00
2013-2-2,70.0,60.0,0.0,43.8,34.7,14.1,56,39,12,30.24,30.09,19,6,19,0.00
2013-2-3,71.8,62.2,54.5,52.2,44.4,31.2,83,53,33,30.12,30.03,16,3,16,0.00
2013-2-4,69.8,62.1,57.7,52.5,38.9,8.7,80,45,10,30.06,29.97,18,3,18,0.00
2013-2-5,74.8,65.4,55.0,61.2,44.4,27.3,80,49,21,30.03,29.94,17,3,19,0.00
2013-2-6,78.8,69.9,0.0,65.1,57.8,45.8,88,67,33,30.03,29.94,15,2,15,0.00
2013-2-7,80.4,72.8,0.0,72.1,65.6,50.2,96,80,39,29.97,29.80,30,6,30,0.08
2013-2-8,74.3,68.7,0.0,71.7,65.6,60.5,98,90,71,30.03,29.83,22,4,22,0.08
2013-2-9,73.8,66.7,0.0,65.3,55.8,42.5,98,70,33,30.12,30.00,25,6,25,0.08
2013-2-10,81.1,71.3,65.1,63.4,57.4,47.4,88,64,32,30.15,30.06,23,9,25,0.00
2013-2-11,82.2,74.2,68.9,71.4,64.7,55.4,94,75,42,30.12,30.00,20,4,20,0.00
2013-2-12,82.9,76.1,0.0,75.3,72.3,67.5,98,89,60,30.03,29.88,19,4,22,0.00
2013-2-13,82.4,74.2,0.0,76.8,70.1,46.2,98,87,46,29.91,29.77,29,6,29,0.91
2013-2-14,69.1,66.0,63.7,65.2,62.8,46.6,98,90,46,29.97,29.85,19,2,22,0.20
2013-2-15,65.8,62.6,59.4,64.0,54.4,41.2,98,77,43,30.03,29.88,19,3,19,0.04
2013-2-16,67.8,60.9,55.6,55.6,41.5,22.6,89,51,26,30.06,29.88,43,9,46,0.00
2013-2-17,55.9,49.8,43.5,29.2,16.1,6.3,45,27,15,30.27,30.06,34,7,34,0.00
2013-2-18,69.4,55.9,43.3,55.3,29.9,2.4,83,41,12,30.30,30.12,21,7,22,0.00
2013-2-19,77.5,68.4,60.3,67.5,53.9,43.3,92,63,33,30.15,30.00,17,4,20,0.00
2013-2-20,75.0,68.0,63.0,70.2,61.8,53.2,98,82,51,30.06,29.97,20,4,20,0.00
2013-2-21,80.1,71.1,63.1,68.5,61.7,54.0,93,74,43,30.03,29.91,17,5,20,0.00
2013-2-22,84.2,76.1,69.6,73.0,67.3,58.9,97,77,44,30.00,29.91,25,5,25,0.00
2013-2-23,80.6,76.2,73.8,75.8,74.1,72.1,98,93,77,29.94,29.83,26,5,26,0.00
2013-2-24,77.9,74.7,73.6,77.1,73.6,71.7,98,96,88,29.88,29.80,19,2,20,0.00
2013-2-25,84.0,77.9,73.4,74.8,70.5,57.7,98,80,43,29.83,29.71,17,5,20,0.00
2013-2-26,78.4,75.0,70.7,76.9,71.4,63.1,98,89,70,29.83,29.62,26,7,26,0.31
2013-2-27,71.1,67.3,63.0,65.6,53.4,44.2,83,62,43,29.91,29.80,26,7,26,0.00
2013-2-28,72.1,66.7,62.6,58.2,45.8,36.3,73,47,37,29.94,29.85,29,7,29,0.00
2013-3-1,63.3,59.8,55.8,42.7,35.2,22.9,50,40,28,29.97,29.85,31,9,34,0.00
2013-3-2,58.8,56.3,50.7,38.9,31.4,23.7,53,39,28,30.00,29.91,40,11,43,0.00
2013-3-3,55.6,50.6,45.3,33.4,27.8,21.7,52,41,34,30.09,29.94,34,10,35,0.00
2013-3-4,60.8,54.5,46.2,42.1,27.1,15.1,59,36,19,30.15,30.06,26,5,26,0.00
2013-3-5,72.5,63.3,52.0,65.6,48.8,34.9,88,61,42,30.09,29.97,21,4,21,0.00
2013-3-6,70.2,61.1,55.8,69.6,41.4,24.1,98,52,26,30.09,29.88,42,13,42,0.00
2013-3-7,59.4,55.4,48.6,47.0,31.4,16.1,71,41,22,30.18,30.06,33,8,36,0.00
2013-3-8,67.5,60.5,52.9,55.8,43.8,20.5,96,59,17,30.18,30.06,27,5,27,0.00
2013-3-9,73.9,63.9,57.0,53.9,45.1,15.2,79,54,11,30.15,30.06,21,7,21,0.00
2013-3-10,79.7,68.3,62.4,59.7,50.8,38.0,85,57,24,30.09,29.97,27,10,30,0.00
2013-3-11,79.3,71.5,65.5,61.5,54.2,44.8,86,57,30,30.03,29.80,25,8,32,0.00
2013-3-12,73.2,67.3,61.7,72.6,61.0,49.0,98,81,63,29.97,29.77,30,9,33,0.24
2013-3-13,67.1,63.5,60.4,53.6,38.0,28.1,71,40,25,30.12,29.97,38,10,38,0.00
2013-3-14,64.4,59.2,54.1,50.5,27.1,8.1,61,31,14,30.21,30.12,39,9,41,0.00
2013-3-15,64.6,59.6,51.8,49.6,34.3,6.7,84,43,11,30.24,30.09,23,5,25,0.00
2013-3-16,70.5,65.3,0.0,65.8,53.6,27.9,96,69,23,30.12,30.00,10,3,11,0.00
2013-3-17,76.3,68.9,63.7,64.5,55.9,43.8,97,67,34,30.06,29.91,12,4,12,0.00
2013-3-18,75.6,71.5,67.3,70.3,65.6,52.6,97,82,54,29.97,29.80,20,5,20,0.00
2013-3-19,77.2,71.7,69.3,70.5,68.4,56.2,98,90,49,29.94,29.83,11,2,13,0.00
2013-3-20,73.4,69.8,65.3,70.1,66.7,59.0,96,90,63,29.91,29.74,32,4,32,0.12
2013-3-21,66.7,61.6,57.6,64.7,34.6,11.0,93,40,13,29.94,29.83,27,8,28,0.00
2013-3-22,75.6,65.3,55.6,72.1,46.5,18.7,98,55,17,29.91,29.80,29,7,29,1.42
2013-3-23,82.0,75.7,71.2,77.0,73.7,70.6,98,94,77,29.88,29.74,28,10,28,0.00
2013-3-24,81.5,76.6,72.9,78.3,75.0,72.0,98,95,83,29.74,29.59,34,12,37,0.00
2013-3-25,73.0,63.6,59.5,72.1,43.7,26.1,97,51,27,30.00,29.68,36,13,37,0.00
2013-3-26,62.2,55.9,53.1,36.0,27.8,18.5,42,34,19,30.18,29.97,43,14,44,0.00
2013-3-27,55.4,52.0,45.7,35.5,25.5,16.0,47,36,27,30.27,30.15,26,10,26,0.00
2013-3-28,63.3,58.5,50.5,48.6,29.9,5.9,81,38,11,30.24,30.15,26,8,26,0.00
2013-3-29,71.4,63.2,54.7,56.3,39.8,8.3,79,47,9,30.27,30.15,21,6,21,0.00
2013-3-30,73.8,66.2,57.4,61.6,51.2,37.7,84,60,31,30.18,30.06,22,6,22,0.00
2013-3-31,77.7,70.8,64.2,62.8,51.8,36.0,86,54,23,30.09,29.94,22,8,26,0.00
2013-4-1,77.2,73.1,70.5,71.9,68.4,58.9,94,86,64,29.97,29.88,22,8,22,0.00
2013-4-2,74.5,71.8,70.2,70.3,67.8,63.6,97,88,71,30.03,29.94,15,4,15,0.00
2013-4-3,82.8,74.9,70.3,73.9,66.5,55.1,95,77,39,30.00,29.88,32,10,32,0.00
2013-4-4,76.1,74.1,71.6,74.2,69.5,56.4,96,86,52,29.97,29.80,34,9,34,0.39
2013-4-5,72.5,69.6,65.1,71.0,64.4,56.2,95,84,62,29.94,29.74,30,10,30,0.24
2013-4-6,70.0,65.5,59.5,65.8,54.1,43.8,87,68,43,30.03,29.94,28,10,28,0.00
2013-4-7,79.9,71.6,65.8,65.4,57.1,36.7,96,64,22,30.09,29.97,22,9,22,0.00
2013-4-8,84.0,75.2,70.9,67.6,56.2,36.1,81,55,19,30.06,29.94,26,8,26,0.00
2013-4-9,85.1,76.4,71.8,69.7,61.2,47.4,88,63,29,30.09,29.97,22,9,22,0.00
2013-4-10,83.5,76.9,71.6,69.3,60.7,48.6,87,59,31,30.03,29.88,22,8,22,0.00
2013-4-11,88.2,80.5,76.5,75.3,68.8,56.6,93,71,35,29.91,29.74,36,14,36,0.00
2013-4-12,81.0,79.4,75.6,78.6,76.2,72.1,96,90,84,29.85,29.71,45,13,45,0.08
2013-4-13,84.0,77.7,73.6,73.3,64.3,55.4,90,66,40,29.91,29.83,18,3,18,0.00
2013-4-14,87.4,78.2,71.4,75.5,68.0,55.2,90,72,45,29.94,29.80,30,7,30,0.04
2013-4-15,85.6,78.8,72.3,66.7,60.1,54.9,73,54,37,30.00,29.83,14,2,18,0.00
2013-4-16,94.3,82.5,74.8,73.2,63.9,49.1,94,57,23,30.06,29.94,18,5,18,0.00
2013-4-17,90.1,80.7,73.4,71.7,59.0,40.1,92,52,18,30.06,29.94,17,7,20,0.00
2013-4-18,90.0,81.1,74.7,73.3,63.1,50.7,87,57,29,29.97,29.85,22,6,22,0.00
2013-4-19,90.5,82.9,77.9,75.8,69.0,52.8,92,67,29,29.94,29.85,19,6,20,0.00
2013-4-20,80.4,71.8,64.9,76.7,62.7,52.9,90,74,50,30.06,29.91,26,6,26,0.00
2013-4-21,83.5,72.6,64.9,73.7,62.9,53.8,94,74,37,30.06,29.94,19,7,19,0.08
2013-4-22,86.2,75.9,0.0,73.2,66.2,52.4,98,76,33,30.00,29.91,22,6,22,0.08
2013-4-23,85.1,75.9,69.4,67.4,59.1,45.0,92,61,30,30.03,29.94,19,7,19,0.08
2013-4-24,87.1,76.1,68.5,68.1,57.4,29.6,89,57,13,30.06,30.00,18,6,18,0.00
2013-4-25,87.1,78.3,71.2,69.8,59.8,49.1,88,56,31,30.15,30.03,14,3,15,0.00
2013-4-26,87.1,79.0,73.6,67.6,60.7,54.1,79,55,35,30.18,30.06,18,4,18,0.00
2013-4-27,87.1,79.3,73.9,72.8,60.9,45.6,92,56,25,30.15,30.00,19,6,19,0.00
2013-4-28,88.5,79.3,73.2,64.4,56.8,38.4,73,49,18,30.03,29.88,19,6,19,0.00
2013-4-29,87.1,79.5,73.4,72.8,60.8,51.8,81,54,31,29.94,29.83,19,4,19,0.00
2013-4-30,89.1,80.6,72.1,74.6,65.0,51.7,96,64,29,29.91,29.83,16,5,17,0.08
2013-5-1,78.4,75.5,72.1,76.9,73.2,70.5,97,93,84,29.94,29.83,18,7,18,0.67
2013-5-2,84.6,76.3,70.3,73.2,67.5,57.9,97,77,43,29.88,29.74,17,5,17,0.00
2013-5-3,85.1,77.8,72.9,78.9,66.8,55.3,96,73,39,29.77,29.65,18,4,18,0.24
2013-5-4,82.0,76.2,72.0,71.2,64.2,54.7,89,69,41,29.74,29.62,27,6,27,0.00
2013-5-5,77.0,72.0,66.6,68.1,43.2,21.5,92,40,13,29.88,29.74,29,8,29,0.00
2013-5-6,75.6,71.6,68.2,58.3,43.9,34.8,60,38,23,29.94,29.83,26,7,26,0.00
2013-5-7,78.8,72.9,68.0,52.3,44.6,39.6,48,37,26,29.97,29.88,22,8,22,0.00
2013-5-8,81.1,75.4,71.1,51.5,47.3,41.9,45,37,28,30.06,29.94,17,5,17,0.00
2013-5-9,84.9,77.4,72.5,55.1,51.5,47.8,52,41,29,30.09,30.00,18,3,18,0.00
2013-5-10,90.7,79.8,71.2,72.4,58.8,39.4,92,54,17,30.06,29.91,17,4,17,0.00
2013-5-11,88.7,81.3,76.5,79.4,71.6,61.8,93,74,41,29.97,29.91,18,4,19,0.00
2013-5-12,86.9,80.3,76.5,77.3,65.1,51.7,92,63,31,29.97,29.85,18,4,18,0.00
2013-5-13,84.9,77.4,72.7,69.2,44.1,16.5,76,37,8,30.06,29.94,23,4,23,0.00
2013-5-14,84.0,74.9,65.7,50.4,24.1,8.4,43,17,6,30.15,30.03,19,6,22,0.00
2013-5-15,86.7,76.8,70.0,59.0,44.1,16.5,66,35,8,30.12,30.00,14,3,18,0.00
2013-5-16,86.0,78.4,72.1,62.6,52.0,40.2,68,42,22,30.06,29.91,15,4,16,0.00
2013-5-17,86.9,79.9,73.6,67.6,55.7,48.5,74,45,29,30.03,29.94,15,4,16,0.00
2013-5-18,97.7,82.0,76.6,73.5,61.3,48.5,87,54,20,30.03,29.94,11,2,11,0.00
2013-11-12,77.5,72.5,67.3,69.9,66.1,55.0,95,81,59,30.12,30.02,0,0,0,0.00
2013-11-13,70.0,62.4,54.3,56.5,49.5,45.6,76,63,54,30.31,30.08,0,0,0,0.00
2013-11-14,76.3,64.0,53.6,58.9,53.2,46.6,82,69,51,30.30,30.16,0,0,0,0.00
2013-11-15,72.9,68.6,65.3,67.0,62.8,58.0,93,82,69,30.18,30.05,0,0,0,0.00
2013-11-16,75.2,71.6,68.5,71.6,69.1,10.4,99,92,85,30.13,30.01,0,0,0,0.00
2013-11-17,82.9,75.0,69.8,72.6,68.8,65.0,94,82,64,30.08,29.99,0,0,0,0.00
2013-11-18,81.1,75.0,70.0,73.6,71.0,68.5,99,88,70,30.02,29.93,0,0,0,0.00
2013-11-19,79.3,73.5,68.0,73.7,68.8,59.2,99,86,63,29.97,29.88,0,0,0,0.00
2013-11-20,79.7,72.1,65.7,72.1,67.4,61.8,91,85,76,30.09,29.96,0,0,0,0.00
2013-11-21,82.9,75.3,71.2,72.1,70.1,68.9,93,85,64,30.17,30.08,0,0,0,0.00
2013-11-22,82.6,75.5,70.0,72.3,69.0,65.7,96,81,60,30.19,30.08,0,0,0,0.00
2013-11-23,79.3,72.0,66.6,70.1,66.7,63.7,96,84,60,30.12,30.02,0,0,0,0.00
2013-11-24,71.1,66.6,59.2,68.6,59.9,50.7,95,79,67,30.22,30.04,0,0,0,0.00
2013-11-25,75.0,68.0,59.2,64.2,58.1,51.3,84,71,59,30.21,30.04,0,0,0,0.00
2013-11-26,79.7,73.3,68.4,74.8,71.0,64.1,99,93,79,30.04,29.75,0,0,0,0.00
2013-11-27,72.0,63.5,49.5,71.1,56.1,39.5,98,77,63,30.21,29.73,9,0,9,0.00
2013-11-28,59.5,51.0,39.7,49.5,41.0,-11.3,84,69,45,30.36,30.21,6,0,6,0.00
2013-11-29,71.8,61.1,51.8,57.0,52.4,47.9,92,74,51,30.36,30.26,0,0,0,0.00
2013-11-30,76.6,65.1,56.5,63.0,58.4,49.7,95,80,59,30.32,30.17,1,0,1,0.00
2013-12-1,69.1,62.2,59.4,64.4,60.8,59.1,99,95,84,30.20,29.99,0,0,0,0.00
2013-12-2,68.9,64.1,59.5,62.9,58.6,54.4,99,84,62,29.99,29.84,0,0,0,0.00
2013-12-3,76.6,68.2,59.7,68.5,63.1,56.7,98,85,64,29.98,29.88,1,0,1,0.00
2013-12-4,80.4,72.5,67.6,72.7,68.7,66.5,99,88,63,30.07,29.95,1,0,1,0.00
2013-12-5,81.7,72.7,66.9,69.5,67.2,64.9,99,84,58,30.17,30.06,0,0,0,0.00
2013-12-6,82.4,73.5,68.0,73.0,69.5,66.7,99,88,67,30.17,30.08,3,0,3,0.00
2013-12-7,79.2,72.4,68.5,70.9,67.4,56.7,99,86,49,30.23,30.13,4,0,4,0.00
2013-12-8,83.5,73.2,66.9,71.5,66.4,56.7,99,81,50,30.22,30.09,1,0,1,0.00
2013-12-9,81.0,73.1,67.1,72.9,69.2,66.5,99,88,69,30.17,30.08,1,0,1,0.00
2013-12-10,80.2,72.7,65.5,71.8,69.3,65.2,99,90,70,30.17,30.08,1,0,1,0.00
2013-12-11,77.2,70.1,64.8,69.5,64.8,58.1,94,83,66,30.25,30.15,1,0,1,0.00
2013-12-12,72.3,64.9,55.9,65.6,50.2,28.6,95,65,24,30.32,30.19,1,0,1,0.00
2013-12-13,73.8,62.7,51.8,60.4,51.2,37.7,82,67,45,30.29,30.09,6,0,6,0.00
2013-12-14,81.0,72.9,65.1,72.4,68.2,60.4,95,86,69,30.10,29.93,10,2,10,0.00
2013-12-15,73.8,67.6,59.2,73.5,63.1,53.4,99,86,71,30.14,29.88,32,8,32,0.00
2013-12-16,60.8,55.5,49.3,53.4,46.3,41.7,83,72,50,30.24,30.11,27,6,27,0.00
2013-12-17,67.5,57.0,48.4,52.8,45.7,35.6,86,67,31,30.26,30.16,19,3,19,0.00
2013-12-18,67.8,59.1,52.2,54.4,49.9,38.9,96,73,38,30.30,30.20,22,3,22,0.00
2013-12-19,74.1,61.4,51.3,58.2,51.8,43.7,85,72,48,30.27,30.16,8,0,8,0.00
2013-12-20,81.1,69.9,60.6,67.3,63.2,57.0,93,80,60,30.19,30.08,6,0,6,0.00
2013-12-21,83.5,74.2,67.6,71.4,68.8,65.9,98,84,65,30.12,30.00,6,0,6,0.00
2013-12-22,81.5,74.9,69.8,73.4,70.9,68.9,98,88,72,30.13,30.04,9,1,9,0.00
2013-12-23,81.9,74.7,69.8,74.4,72.1,68.9,99,92,78,30.16,30.08,8,1,8,0.00
2013-12-24,72.7,62.0,52.3,71.8,49.0,24.9,99,67,24,30.27,30.12,36,12,36,0.00
2013-12-25,74.5,61.5,48.4,59.3,48.6,33.4,75,63,49,30.26,30.12,12,1,12,0.00
2013-12-26,75.7,66.6,60.8,63.9,59.7,56.1,90,79,55,30.21,30.09,23,2,23,0.00
2013-12-27,71.1,66.1,62.1,65.7,61.9,57.5,94,86,80,30.25,30.14,13,1,14,0.00
2013-12-28,78.4,71.1,65.1,70.3,67.6,63.4,99,89,73,30.20,29.97,8,1,8,0.00
2013-12-29,76.1,70.4,64.6,73.3,68.6,62.6,99,94,89,30.02,29.88,31,4,31,0.00
2013-12-30,66.6,63.2,60.4,63.6,59.2,53.0,96,87,70,30.20,30.00,22,5,25,0.00
2013-12-31,70.5,64.6,61.2,56.5,51.7,48.1,76,64,46,30.30,30.15,18,2,18,0.00
2014-1-1,66.9,61.8,59.0,64.2,59.0,50.4,99,91,63,30.26,30.04,13,1,13,0.00
2014-1-2,77.0,67.9,61.3,73.0,66.5,54.8,99,95,79,30.05,29.84,26,2,26,0.01